• In Belarus
  • List of Countries
  • For 7 days
  • Water Temperature
  • Weather Map
  • Weather Widgets
  • user-avatar
    Login

    Hourly Weather Staryy Kishit

    Today, 18 November, Monday

    Time Temperature Precipitation Wind Pressure Humidity
    00:00 +1°C° 0 mm 1 mps 759 mmHg 98%
    01:00 +1°C° 0 mm 1 mps 759 mmHg 98%
    02:00 +1°C° 0 mm 1 mps 759 mmHg 97%
    03:00 +1°C° 0 mm 1 mps 759 mmHg 98%
    04:00 +1°C° 0 mm 2 mps 759 mmHg 98%
    05:00 +1°C° 0 mm 2 mps 758 mmHg 98%
    06:00 +1°C° 0 mm 2 mps 758 mmHg 97%
    07:00 +1°C° 0 mm 2 mps 758 mmHg 97%
    08:00 +1°C° 0 mm 2 mps 758 mmHg 97%
    09:00 +1°C° 0 mm 2 mps 758 mmHg 97%
    10:00 +1°C° 0.1 mm 2 mps 757 mmHg 97%
    11:00 0°C° 0.1 mm 3 mps 757 mmHg 98%
    12:00 0°C° 0.1 mm 3 mps 757 mmHg 98%
    13:00 0°C° 0.7 mm 3 mps 756 mmHg 98%
    14:00 +1°C° 0.7 mm 3 mps 756 mmHg 98%
    15:00 +1°C° 0.7 mm 3 mps 756 mmHg 98%
    16:00 +1°C° 1.3 mm 3 mps 756 mmHg 98%
    17:00 +1°C° 1.3 mm 3 mps 755 mmHg 98%
    18:00 +1°C° 1.3 mm 3 mps 755 mmHg 98%
    19:00 +1°C° 0 mm 3 mps 755 mmHg 98%
    20:00 +1°C° 0 mm 3 mps 756 mmHg 98%
    21:00 +2°C° 0 mm 2 mps 756 mmHg 98%
    22:00 +2°C° 0 mm 2 mps 756 mmHg 97%
    23:00 +2°C° 0 mm 2 mps 756 mmHg 97%

    Tomorrow, 19 November, Tuesday

    Time Temperature Precipitation Wind Pressure Humidity
    00:00 +2°C° 0 mm 2 mps 756 mmHg 97%
    01:00 +2°C° 0 mm 2 mps 757 mmHg 97%
    02:00 +1°C° 0 mm 3 mps 758 mmHg 97%
    03:00 0°C° 0 mm 3 mps 758 mmHg 97%
    04:00 0°C° 0.1 mm 3 mps 759 mmHg 97%
    05:00 -1°C° 0.1 mm 3 mps 759 mmHg 96%
    06:00 -1°C° 0.1 mm 3 mps 759 mmHg 96%
    07:00 -3°C° 0.2 mm 4 mps 760 mmHg 94%
    08:00 -5°C° 0.2 mm 5 mps 760 mmHg 92%
    09:00 -6°C° 0.2 mm 5 mps 761 mmHg 90%
    10:00 -6°C° 0.1 mm 5 mps 761 mmHg 88%
    11:00 -7°C° 0.1 mm 5 mps 762 mmHg 85%
    12:00 -8°C° 0.1 mm 6 mps 762 mmHg 83%
    13:00 -8°C° 0 mm 5 mps 763 mmHg 77%
    14:00 -8°C° 0 mm 5 mps 764 mmHg 70%
    15:00 -10°C° 0 mm 5 mps 765 mmHg 64%
    16:00 -10°C° 0 mm 5 mps 765 mmHg 61%
    17:00 -11°C° 0 mm 6 mps 766 mmHg 57%
    18:00 -12°C° 0 mm 6 mps 766 mmHg 54%
    19:00 -12°C° 0 mm 6 mps 767 mmHg 52%
    20:00 -14°C° 0 mm 6 mps 767 mmHg 51%
    21:00 -14°C° 0 mm 6 mps 768 mmHg 50%
    22:00 -13°C° 0 mm 5 mps 768 mmHg 50%
    23:00 -14°C° 0 mm 5 mps 769 mmHg 51%

    Day after tomorrow, 20 November, Wednesday

    Time Temperature Precipitation Wind Pressure Humidity
    00:00 -14°C° 0 mm 5 mps 769 mmHg 52%
    01:00 -14°C° 0 mm 5 mps 770 mmHg 53%
    02:00 -14°C° 0 mm 5 mps 770 mmHg 55%
    03:00 -15°C° 0 mm 5 mps 771 mmHg 56%
    04:00 -15°C° 0 mm 4 mps 771 mmHg 56%
    05:00 -15°C° 0 mm 4 mps 771 mmHg 56%
    06:00 -15°C° 0 mm 4 mps 771 mmHg 57%
    07:00 -15°C° 0 mm 4 mps 772 mmHg 56%
    08:00 -15°C° 0 mm 4 mps 772 mmHg 56%
    09:00 -15°C° 0 mm 4 mps 772 mmHg 55%
    10:00 -14°C° 0 mm 4 mps 773 mmHg 53%
    11:00 -13°C° 0 mm 3 mps 773 mmHg 51%
    12:00 -12°C° 0 mm 3 mps 773 mmHg 48%
    13:00 -12°C° 0 mm 3 mps 773 mmHg 49%
    14:00 -12°C° 0 mm 3 mps 773 mmHg 49%
    15:00 -10°C° 0 mm 2 mps 773 mmHg 49%
    16:00 -10°C° 0 mm 2 mps 773 mmHg 50%
    17:00 -12°C° 0 mm 2 mps 773 mmHg 52%
    18:00 -12°C° 0 mm 2 mps 773 mmHg 53%
    19:00 -12°C° 0 mm 2 mps 774 mmHg 54%
    20:00 -12°C° 0 mm 2 mps 774 mmHg 55%
    21:00 -12°C° 0 mm 2 mps 774 mmHg 55%
    22:00 -10°C° 0 mm 1 mps 774 mmHg 56%
    23:00 -10°C° 0 mm 1 mps 774 mmHg 57%

    21 November, Thursday

    Time Temperature Precipitation Wind Pressure Humidity
    00:00 -10°C° 0 mm 1 mps 773 mmHg 57%
    01:00 -10°C° 0 mm 1 mps 773 mmHg 57%
    02:00 -10°C° 0 mm 1 mps 774 mmHg 57%
    03:00 -10°C° 0 mm 1 mps 774 mmHg 56%
    04:00 -10°C° 0 mm 1 mps 774 mmHg 57%
    05:00 -10°C° 0 mm 1 mps 773 mmHg 58%
    06:00 -10°C° 0 mm 1 mps 773 mmHg 59%
    07:00 -10°C° 0 mm 1 mps 773 mmHg 60%
    08:00 -12°C° 0 mm 2 mps 773 mmHg 60%
    09:00 -10°C° 0 mm 2 mps 773 mmHg 61%
    10:00 -10°C° 0 mm 2 mps 773 mmHg 59%
    11:00 -9°C° 0 mm 2 mps 773 mmHg 56%
    12:00 -8°C° 0 mm 2 mps 772 mmHg 54%
    13:00 -9°C° 0 mm 3 mps 772 mmHg 54%
    14:00 -9°C° 0 mm 3 mps 772 mmHg 54%
    15:00 -9°C° 0 mm 3 mps 771 mmHg 54%
    16:00 -9°C° 0 mm 3 mps 771 mmHg 55%
    17:00 -10°C° 0 mm 3 mps 771 mmHg 55%
    18:00 -10°C° 0 mm 3 mps 771 mmHg 56%
    19:00 -10°C° 0 mm 3 mps 771 mmHg 57%
    20:00 -10°C° 0 mm 3 mps 770 mmHg 57%
    21:00 -10°C° 0 mm 3 mps 770 mmHg 58%
    22:00 -10°C° 0 mm 3 mps 770 mmHg 58%
    23:00 -10°C° 0 mm 3 mps 770 mmHg 58%

    22 November, Friday

    Time Temperature Precipitation Wind Pressure Humidity
    00:00 -10°C° 0 mm 3 mps 770 mmHg 58%
    01:00 -10°C° 0 mm 3 mps 769 mmHg 58%
    02:00 -10°C° 0 mm 3 mps 769 mmHg 58%
    03:00 -10°C° 0 mm 3 mps 769 mmHg 58%
    04:00 -11°C° 0 mm 4 mps 769 mmHg 59%
    05:00 -11°C° 0 mm 4 mps 768 mmHg 59%
    06:00 -11°C° 0 mm 4 mps 768 mmHg 59%
    07:00 -11°C° 0 mm 4 mps 768 mmHg 58%
    08:00 -10°C° 0 mm 4 mps 768 mmHg 57%
    09:00 -10°C° 0 mm 4 mps 768 mmHg 56%
    10:00 -9°C° 0 mm 4 mps 767 mmHg 53%
    11:00 -9°C° 0 mm 4 mps 767 mmHg 50%
    12:00 -8°C° 0 mm 4 mps 767 mmHg 47%
    13:00 -8°C° 0 mm 4 mps 766 mmHg 48%
    14:00 -8°C° 0 mm 4 mps 766 mmHg 48%
    15:00 -8°C° 0 mm 4 mps 766 mmHg 49%
    16:00 -8°C° 0 mm 4 mps 765 mmHg 49%
    17:00 -9°C° 0 mm 4 mps 765 mmHg 49%
    18:00 -9°C° 0 mm 4 mps 765 mmHg 49%
    19:00 -9°C° 0 mm 4 mps 765 mmHg 50%
    20:00 -9°C° 0 mm 4 mps 765 mmHg 51%
    21:00 -9°C° 0 mm 4 mps 764 mmHg 51%
    22:00 -9°C° 0 mm 4 mps 764 mmHg 52%
    23:00 -9°C° 0 mm 4 mps 764 mmHg 52%

    23 November, Saturday

    Time Temperature Precipitation Wind Pressure Humidity
    00:00 -9°C° 0 mm 4 mps 764 mmHg 53%
    01:00 -9°C° 0 mm 4 mps 764 mmHg 54%
    02:00 -8°C° 0 mm 3 mps 764 mmHg 55%
    03:00 -8°C° 0 mm 3 mps 764 mmHg 56%
    04:00 -8°C° 0 mm 3 mps 764 mmHg 57%
    05:00 -8°C° 0 mm 3 mps 764 mmHg 57%
    06:00 -8°C° 0 mm 3 mps 764 mmHg 58%
    07:00 -8°C° 0 mm 3 mps 764 mmHg 59%
    08:00 -8°C° 0 mm 3 mps 764 mmHg 59%
    09:00 -8°C° 0 mm 3 mps 764 mmHg 60%
    10:00 -7°C° 0 mm 3 mps 764 mmHg 60%
    11:00 -7°C° 0 mm 3 mps 764 mmHg 60%
    12:00 -6°C° 0 mm 3 mps 764 mmHg 60%
    13:00 -6°C° 0 mm 2 mps 763 mmHg 62%
    14:00 -6°C° 0 mm 2 mps 763 mmHg 63%
    15:00 -6°C° 0 mm 2 mps 763 mmHg 65%
    16:00 -6°C° 0 mm 2 mps 763 mmHg 67%
    17:00 -6°C° 0 mm 2 mps 763 mmHg 68%
    18:00 -7°C° 0 mm 2 mps 763 mmHg 69%
    19:00 -7°C° 0 mm 2 mps 763 mmHg 72%
    20:00 -7°C° 0 mm 2 mps 763 mmHg 74%
    21:00 -7°C° 0 mm 2 mps 763 mmHg 76%
    22:00 -7°C° 0 mm 2 mps 763 mmHg 78%
    23:00 -7°C° 0 mm 2 mps 763 mmHg 80%
    Show more